STARLINK-34804 (65026 NORAD) Tracking and Keplerian Element Data

This shows tracking and keplerian element data for the satellite.

Feedback or suggestion? Click here.




ElementValue
Catalog65026
NameSTARLINK-34804
Epoch Orbit2316
Epoch Day354.16694153
Epoch Year2025
RAAN303.6437
Inclination53.1605
Eccentricity0.0001078
Argument of Perigee86.9825
Mean Anonmoly273.1299
Mean Motion15.30183739
Decay Rate0.0001518
L11 65026U 25161M 25354.16694153 .00015180 00000+0 52386-3 0 9999
L22 65026 53.1605 303.6437 0001078 86.9825 273.1299 15.30183739 23166



Live tracking and technical data element details for STARLINK-34804 (NORAD 65026). STARLINK-34804 can be tracked NOW for your location showing map with azimuth and elevation plus other details from your city location.







IsCatalogInMostPopularTable: catalog: 65026, numindb: 4
Update: records affected: 1



GetName: 65026 STARLINK-34804

Hit Count: updated at: Sun, 08 Feb 2026 07:05:16 GMT